ATLAS 5 CENTAUR DEB, 44652

Orbit data source: Space-Track

ATLAS 5 CENTAUR DEB, 44652 is space debris in HEO originally from a launch on Wed, 17 Oct 2018 UTC launched from the Air Force Eastern Test Range (AFETR). Debris objects in space refer to the collection of defunct objects orbiting the Earth. Examples of debris include non-operational satellites, rocket bodies, and fragments generated from explosions, collisions, or faulty payload assembly.

Loading next visibility...
Identifier
44652, 2018-079N
Orbit
HEO
Country
Flag of USUS
Related business
Flag of USUnited Launch Alliance/Lockheed Martin (US)
Manufacturer
ULA Decatur
Mission
Spacecraft
Bus & Motor
Unknown
Mass
Unknown
Launch date (UTC)
2018-10-17 (7 years ago)
Launch vehicle
Unknown
Launch site
Air Force Eastern Test Range (AFETR)
Object type
Payload
Rocket body
Debris
Shape & HBR
Unknown shape, 1.1 m
Radar Cross Section
RCS unknown

Expand to show TLE details & history
Last TLE update: 1 month ago

TLE from 1 month ago
0 ATLAS 5 CENTAUR DEB
1 44652U 18079N   25259.96302083 -.00000184  00000-0  00000-0 0  9994
2 44652  12.7344  58.3466 4398539 275.2424  37.6524  1.86425797 47077
Epoch: 2025-09-16T23:06Z
TLE epoch observation values (Epoch: 2025-09-16T23:06:44.999Z)
Latitude
-0.00009°
Longitude
75.58281°
Altitude
15,223.265 km
Speed
4.755 km/s
True Right ascension
03h 53m 39s
True Declination
0° 00' 00"
Sunlit
Object was in daylight at epoch
Visualization orbit readout
Latitude
Unknown
Longitude
Unknown
Altitude
Unknown
Speed
Unknown
Apparent Right ascension
Unknown
Apparent Declination
Unknown
Sunlit
N/A
Visualization observer readout
Local Sidereal Time
05:14:49
Azimuth
Unknown
Elevation
Unknown
Doppler factor
Unknown
Orbital elements
Apogee altitude
33,777.638 km
Perigee altitude
9,243.657 km
Semi-major axis
27,888.784 km
Eccentricity
0.43985
Inclination
12.7344°
RAAN
58.3466°
Arg. of periapsis
275.2424°
True anomaly
84.80278°
Mean anomaly
37.6524°
Eccentric anomaly
59.32863°
Mean motion
0.46601 °/min
Orbital period
772.51 mins
BSTAR
0
Loading maneuver chart data...
Computing Atmospheric mass density...

Documentation

Showing up to 5 results
|